Johnson County (6A4)
Johnson County, TN
Field Elevation: 2240
Lat: 36°25.07N  Long: 81°49.51W
CTAF/Unicom Freq: 122.7000
   
    
Weather Advisories
1/31/2015 22:30 Z
Altimeter 30.27" Hg
Wind 220° @ 0 KT
Gusts --
Visibility 10 SM
Ceiling BKN140
Temperature 4° C (39° F)
Dewpoint -16° C (3° F)
Relative Humidity 21%
Density Altitude --
Condensation Altitude 12,500 feet
  Wind and Runways
Indicated Runway = 24
History
 
 
More Info
All DigiWx sites map
 
Johnson County Airport FBO
 
Airport IQ 5010
(M01) General Dewitt Spain Airport
(3M3) Collegedale Muni
 
about DigiWx
 
FAA Disclaimer: The data displayed is for advisory purposes only and is not to be used for flight planning or operations. For official data, please call (not available) to hear the current automated AWOS voice message.
  METAR 6A4 312230Z AUTO 22000KT 10SM BKN140 04/M16 A3027